Home > Weather > Halifax > Past weeks

Flag for Canada Past Weather in Halifax, Nova Scotia, Canada — Yesterday and Last 2 Weeks

Now
66 °F

Fog.


Feels Like: 66 °F
Forecast: 64 / 78 °F
Wind: 2 mph from North

Location: Halifax International Airport

Current Time: Jul 26, 2016 at 10:52:29 PM

Latest Report: Jul 26, 2016 at 10:00 PM


Visibility: 0 mi

Pressure: 29.79 "Hg

Humidity: 100%

Dew Point: 66 °F

Location of HalifaxLocation

Past Weather in Halifax — Graph

°F

Halifax Temperature Yesterday

Maximum temperature yesterday: 82 °F (at 1:00 PM)
Minimum temperature yesterday: 64 °F (at 1:00 AM)
Average temperature yesterday: 73 °F

High & Low Weather Summary for the Past Weeks

 TemperatureHumidityPressure
High86 °F (Jul 16, 1:00 PM)100% (Jul 13, 11:00 PM)30.18 "Hg (Jul 13, 11:00 PM)
Low55 °F (Jul 12, 3:00 AM)33% (Jul 12, 5:00 PM)29.67 "Hg (Jul 23, 5:00 PM)
Average68 °F79%29.91 "Hg
* Reported Jul 11 9:00 PM — Jul 26 9:52 PM, Halifax, Weather by CustomWeather, © 2016

Note: Actual official high and low records may vary slightly from our data, if they occured in-between our weather recording intervals... More about our weather records

Advertising

Halifax Weather History for the Previous 24 Hours

Scroll right to see more
 ConditionsComfort  
Time TempWeatherWind HumidityBarometerVisibility
9:52 PM
Tue, Jul 26
66 °FFog.3 mph100%29.78 "Hg0 mi
9:00 PM66 °FFog.3 mph100%29.77 "Hg0 mi
8:00 PM66 °FFog.7 mph100%29.76 "Hg1 mi
7:00 PM66 °FFog.5 mph100%29.75 "Hg0 mi
6:55 PM66 °FFog.6 mph100%29.75 "Hg1 mi
6:00 PM66 °FDrizzle. Fog.8 mph100%29.75 "Hg1 mi
5:00 PM66 °FDrizzle. Fog.12 mph100%29.75 "Hg1 mi
4:00 PM68 °FFog.14 mph100%29.75 "Hg1 mi
3:00 PM70 °FSprinkles. Mostly cloudy.12 mph94%29.75 "Hg8 mi
2:48 PM68 °FSprinkles. Fog.10 mph100%29.76 "Hg6 mi
2:00 PM72 °FSprinkles. Low clouds.12 mph88%29.76 "Hg15 mi
1:00 PM72 °FBroken clouds.10 mph88%29.77 "Hg15 mi
12:00 PM70 °FCloudy.10 mph94%29.78 "Hg12 mi
11:00 AM66 °FFog.7 mph100%29.79 "Hg0 mi
10:46 AM64 °FFog.6 mph100%29.80 "Hg0 mi
10:00 AM64 °FLight rain. Fog.8 mph100%29.80 "Hg2 mi
9:55 AM64 °FHeavy rain. Fog.9 mph100%29.80 "Hg1 mi
9:00 AM63 °FLight rain. Fog.10 mph100%29.81 "Hg1 mi
8:52 AM63 °FLight rain. Fog.9 mph100%29.82 "Hg1 mi
8:00 AM63 °FLight rain. Fog.8 mph100%29.83 "Hg1 mi
7:00 AM61 °FLight rain. Mostly cloudy.9 mph100%29.82 "Hg8 mi
6:46 AM61 °FLight rain. Mostly cloudy.8 mph100%29.82 "Hg8 mi
6:00 AM61 °FPassing clouds.7 mph100%29.82 "Hg12 mi
5:00 AM63 °FMostly cloudy.6 mph94%29.83 "Hg10 mi
4:00 AM63 °FFog.8 mph94%29.83 "Hg1 mi
3:00 AM63 °FFog.9 mph94%29.84 "Hg1 mi
2:00 AM63 °FSandstorm.7 mph94%29.84 "Hg2 mi
1:00 AM63 °FMostly cloudy.6 mph100%29.85 "Hg12 mi
12:00 AM64 °FPassing clouds.13 mph94%29.85 "Hg15 mi
11:00 PM
Mon, Jul 25
66 °FPassing clouds.12 mph94%29.86 "Hg15 mi
10:00 PM68 °FOvercast.8 mph88%29.88 "Hg15 mi
Weather by CustomWeather, © 2016

See weather overviewHow to use our weather pages